[[{"header":{"parameterUnit":"m.s-1","parameterCategory":1,"la1":30.2991,"la2":30.254,"lo1":-89.0895,"lo2":-89.0444,"dy":0.0017,"dx":0.0017,"nx":28,"ny":28,"refTime":"2024-05-21T21:00:00:Z","depth":0,"parameterNumber":2,"parameterNumberName":"U-component_of_WINDS"},"data":[0,0,0,0,0,0,0,0,0,0,0,0,0,0,0,0,0,0,0,0,0,0,0,0,0,0,0,0,0,0,0,0,0,0,0,0,0,0,0,0,0,0,0,0,0,0,0,0,0,0,0,0,0,0,0,0,0,0,-1.7758,-1.7758,0,-1.7783,-1.7784,-1.7784,-1.7767,-1.7766,-1.7766,-1.7765,-1.7793,-1.7794,-1.7796,0,0,0,0,0,0,0,0,0,0,0,0,0,-1.7697,-1.7698,-1.7758,-1.7758,-1.7758,-1.7783,-1.7784,-1.7784,-1.7767,-1.7766,-1.7766,-1.7765,-1.7792,-1.7794,-1.7796,0,0,0,0,0,0,0,0,0,0,0,0,0,-1.7723,-1.7699,-1.7758,-1.7753,-1.7753,-1.7783,-1.7784,-1.7784,-1.7768,-1.7766,-1.7765,-1.7764,-1.7792,-1.7794,-1.7796,-1.7833,0,0,-1.7803,-1.7804,0,0,0,0,0,0,0,0,-1.7722,-1.7725,-1.7753,-1.7753,-1.7753,-1.7771,-1.7773,-1.7801,-1.7768,-1.7762,-1.7765,-1.7764,-1.7787,-1.7789,-1.7797,-1.7835,-1.7836,-1.7803,-1.7804,-1.7805,-1.7806,0,0,0,0,0,0,0,-1.772,-1.7724,-1.7768,-1.7754,-1.7754,-1.7751,-1.7753,-1.7778,-1.7781,-1.7762,-1.7761,-1.7765,-1.7786,-1.7795,-1.7797,-1.7836,-1.7803,-1.7805,-1.7806,-1.7807,-1.7907,-1.7909,0,0,0,0,0,0,-1.7718,-1.7723,-1.7767,-1.7769,-1.7734,-1.7753,-1.7755,-1.7766,-1.778,-1.7781,-1.7765,-1.7764,-1.7791,-1.7795,-1.7798,-1.7843,-1.7805,-1.7807,-1.7809,-1.7906,-1.7908,-1.7909,0,0,0,0,0,0,-1.7717,-1.7722,-1.7766,-1.7746,-1.7751,-1.7755,-1.7768,-1.7768,-1.7776,-1.7783,-1.7783,-1.7773,-1.7791,-1.7795,-1.7825,-1.7844,-1.7808,-1.781,-1.7904,-1.7906,-1.7908,-1.7932,0,0,0,0,0,0,-1.7715,-1.7722,-1.7735,-1.7746,-1.7752,-1.7791,-1.7769,-1.7769,-1.7779,-1.7777,-1.779,-1.7791,-1.779,-1.7822,-1.7827,-1.7846,-1.7812,-1.7903,-1.7905,-1.7908,-1.793,-1.7935,-1.7939,0,0,0,0,0,-1.7713,-1.7741,-1.7736,-1.7741,-1.7768,-1.7792,-1.7796,-1.7794,-1.7781,-1.7795,-1.78,-1.779,-1.7841,-1.7825,-1.7831,-1.7851,-1.7902,-1.7905,-1.7908,-1.7928,-1.7934,-1.7939,0,0,0,0,0,0,-1.7732,-1.7742,-1.7737,-1.7769,-1.778,-1.779,-1.7807,-1.78,-1.7816,-1.7813,-1.7811,-1.7814,-1.7845,-1.7851,-1.7833,-1.7888,-1.7869,-1.7874,-1.7883,-1.7889,-1.7893,-1.7891,-1.7814,0,0,0,0,0,-1.774,-1.7758,-1.7766,-1.7794,-1.78,-1.7803,-1.7813,-1.781,-1.7822,-1.7827,-1.7834,-1.7846,-1.7865,-1.7877,-1.7895,-1.7931,-1.7934,-1.7948,-1.7953,-1.7957,-1.796,-1.7981,-1.7987,-1.7919,-1.7919,-1.7919,0,0,-1.7757,-1.7764,-1.7776,-1.7798,-1.7806,-1.7826,-1.7806,-1.7828,-1.7842,-1.783,-1.7859,-1.7865,-1.7878,-1.7912,-1.7927,-1.7918,-1.798,-1.796,-1.7963,-1.7965,-1.7985,-1.7991,-1.7997,-1.7921,-1.7921,-1.792,0,0,-1.7797,-1.7804,-1.7828,-1.7837,-1.785,-1.7852,-1.7858,-1.787,-1.7873,-1.7901,-1.7893,-1.7911,-1.7943,-1.7954,-1.7963,-1.801,-1.8002,-1.8016,-1.804,-1.806,-1.8066,-1.807,-1.8087,-1.8093,-1.802,-1.802,-1.802,0,-1.7815,-1.7844,-1.7841,-1.7863,-1.7874,-1.7864,-1.7889,-1.7898,-1.7917,-1.7925,-1.7914,-1.7955,-1.7964,-1.8,-1.8012,-1.802,-1.8027,-1.8014,-1.8065,-1.807,-1.8074,-1.809,-1.8096,-1.8021,-1.8021,-1.8021,-1.8021,0,-1.7866,-1.7886,-1.7905,-1.7922,-1.7935,-1.7958,-1.7961,-1.7974,-1.7972,-1.7975,-1.8005,-1.8016,-1.8036,-1.8044,-1.8042,-1.8081,-1.8075,-1.8065,-1.8046,-1.8082,-1.8097,-1.8103,-1.8023,-1.8023,-1.8022,-1.8022,0,0,-1.7917,-1.7935,-1.7941,-1.795,-1.7965,-1.798,-1.8005,-1.8024,-1.8035,-1.8049,-1.807,-1.8098,-1.809,-1.8101,-1.81,-1.8118,-1.8154,-1.8106,-1.8106,-1.8114,-1.8199,-1.8206,-1.8213,-1.815,-1.8151,-1.8152,-1.8198,0,-1.7958,-1.7998,-1.7998,-1.8036,-1.8055,-1.8047,-1.8068,-1.808,-1.8085,-1.8103,-1.8108,-1.8129,-1.8115,-1.8122,-1.814,-1.8146,-1.8171,-1.8143,-1.817,-1.8171,-1.8166,-1.8221,-1.8228,-1.827,-1.8204,-1.8205,-1.8205,0,-1.801,-1.8025,-1.8065,-1.8078,-1.8086,-1.8105,-1.8123,-1.814,-1.8155,-1.8157,-1.817,-1.8167,-1.8193,-1.8174,-1.821,-1.8191,-1.8202,-1.8208,-1.8209,-1.8211,-1.8189,-1.8224,-1.8283,-1.8289,-1.8214,-1.8214,-1.8213,0,-1.8043,-1.8074,-1.8102,-1.8109,-1.8125,-1.8139,-1.8146,-1.816,-1.8172,-1.8189,-1.8197,-1.8217,-1.8227,-1.8243,-1.8246,-1.8232,-1.8283,-1.8264,-1.8286,-1.8286,-1.8296,-1.8295,-1.8358,-1.8305,-1.8304,-1.8304,-1.8304,0,-1.8087,-1.8112,-1.8117,-1.8134,-1.8162,-1.8162,-1.819,-1.8197,-1.8209,-1.8228,-1.8224,-1.8242,-1.8245,-1.8265,-1.8268,-1.8298,-1.8303,-1.8306,-1.8306,-1.8306,-1.8305,-1.8312,-1.8309,-1.8306,-1.8306,-1.8305,-1.8305,0,-1.8128,-1.8132,-1.8162,-1.8176,-1.818,-1.82,-1.8212,-1.8229,-1.8234,-1.8258,-1.8264,-1.8272,-1.8295,-1.83,-1.8327,-1.8329,-1.8365,-1.8363,-1.836,-1.8359,-1.8381,-1.8379,-1.845,-1.846,-1.84,-1.8401,-1.8401,0,-1.8156,-1.8175,-1.8191,-1.8203,-1.8211,-1.8231,-1.8243,-1.8246,-1.8259,-1.8278,-1.8293,-1.8316,-1.8333,-1.8371,-1.838,-1.8401,-1.8399,-1.8423,-1.8402,-1.8402,-1.84,-1.8398,-1.84,-1.8426,-1.8427,-1.8427,-1.8428,0,-1.8205,-1.8207,-1.8224,-1.8244,-1.8259,-1.8274,-1.8289,-1.8299,-1.8304,-1.8319,-1.8343,-1.8357,-1.8385,-1.8408,-1.843,-1.8439,-1.8434,-1.8435,-1.8441,-1.844,-1.8438,-1.8439,-1.837,-1.8432,-1.8432,-1.8432,-1.8431,-1.8431,-1.824,-1.8257,-1.8271,-1.8291,-1.8303,-1.8317,-1.8334,-1.8341,-1.8361,-1.8383,-1.8384,-1.8409,-1.8425,-1.8454,-1.8465,-1.8486,-1.8479,-1.8487,-1.849,-1.8492,-1.8494,-1.8435,-1.849,-1.849,-1.849,-1.849,-1.8489,0,-1.8289,-1.8298,-1.8317,-1.8338,-1.8354,-1.8349,-1.8365,-1.838,-1.8402,-1.8417,-1.8435,-1.8463,-1.8485,-1.8497,-1.8519,-1.8534,-1.8533,-1.854,-1.8539,-1.8541,-1.8499,-1.8491,-1.8541,-1.8541,-1.8541,-1.8541,-1.8541,-1.8541,-1.8316,-1.8345,-1.8348,-1.8383,-1.8392,-1.8416,-1.8426,-1.844,-1.8452,-1.8483,-1.8501,-1.8508,-1.8522,-1.8546,-1.8568,-1.857,-1.8579,-1.8587,-1.8589,-1.8549,-1.8544,-1.8539,-1.8532,-1.8589,-1.8589,-1.863,-1.863,-1.863]},{"header":{"parameterUnit":"m.s-1","parameterCategory":1,"la1":30.2991,"la2":30.254,"lo1":-89.0895,"lo2":-89.0444,"dy":0.0017,"dx":0.0017,"nx":28,"ny":28,"refTime":"2024-05-21T21:00:00:Z","depth":0,"parameterNumber":3,"parameterNumberName":"V-component_of_WINDS"},"data":[0,0,0,0,0,0,0,0,0,0,0,0,0,0,0,0,0,0,0,0,0,0,0,0,0,0,0,0,0,0,0,0,0,0,0,0,0,0,0,0,0,0,0,0,0,0,0,0,0,0,0,0,0,0,0,0,0,0,4.0542,4.0543,0,4.0633,4.0634,4.0635,4.063,4.0629,4.0628,4.0627,4.0719,4.0723,4.0727,0,0,0,0,0,0,0,0,0,0,0,0,0,4.0363,4.0366,4.0542,4.0543,4.0544,4.0633,4.0634,4.0636,4.0631,4.0629,4.0627,4.0626,4.0718,4.0722,4.0727,0,0,0,0,0,0,0,0,0,0,0,0,0,4.0446,4.0367,4.0542,4.0553,4.0554,4.0633,4.0634,4.0636,4.0631,4.0629,4.0627,4.0625,4.0717,4.0722,4.0727,4.0801,0,0,4.0744,4.0747,0,0,0,0,0,0,0,0,4.0441,4.0452,4.055,4.0552,4.0554,4.0618,4.0605,4.0691,4.0631,4.0602,4.0627,4.0624,4.0687,4.0695,4.0717,4.0805,4.0809,4.0745,4.0748,4.0751,4.0752,0,0,0,0,0,0,0,4.0435,4.0449,4.0578,4.0551,4.0554,4.0552,4.0562,4.0621,4.0654,4.0604,4.0604,4.0615,4.0688,4.0711,4.0719,4.0811,4.0745,4.075,4.0753,4.0755,4.0965,4.0967,0,0,0,0,0,0,4.0427,4.0444,4.0575,4.0581,4.0492,4.0557,4.0568,4.06,4.0654,4.066,4.0617,4.0614,4.0703,4.0712,4.0722,4.0812,4.0751,4.0756,4.0759,4.0962,4.0965,4.0968,0,0,0,0,0,0,4.0424,4.0439,4.0571,4.0512,4.0529,4.0562,4.0598,4.0603,4.0626,4.0663,4.0669,4.0634,4.0702,4.0714,4.0781,4.0815,4.0758,4.0763,4.096,4.0963,4.0966,4.0993,0,0,0,0,0,0,4.0418,4.0438,4.0466,4.0513,4.0532,4.063,4.06,4.0606,4.0635,4.0633,4.0681,4.0687,4.0701,4.0773,4.0787,4.0822,4.0768,4.0957,4.0961,4.0965,4.0989,4.0997,4.1003,0,0,0,0,0,4.0412,4.047,4.0468,4.0484,4.0569,4.0632,4.0643,4.0658,4.0638,4.0667,4.0691,4.0686,4.0809,4.078,4.0796,4.0833,4.0955,4.096,4.0965,4.0986,4.0995,4.1003,0,0,0,0,0,0,4.0426,4.0476,4.0475,4.0549,4.0586,4.0631,4.0668,4.0667,4.071,4.0707,4.0723,4.0734,4.0801,4.0823,4.079,4.0907,4.0879,4.0888,4.089,4.0899,4.0906,4.09,4.0772,0,0,0,0,0,4.0438,4.0486,4.0526,4.0588,4.0607,4.0634,4.0662,4.0671,4.071,4.0725,4.0754,4.0792,4.0839,4.087,4.0916,4.0992,4.1003,4.1025,4.1032,4.1037,4.1045,4.1087,4.1098,4.0984,4.0984,4.0984,0,0,4.0463,4.0496,4.0525,4.0592,4.0622,4.0671,4.0648,4.07,4.0736,4.0733,4.0799,4.0821,4.0865,4.0937,4.097,4.0957,4.1079,4.1044,4.1048,4.1053,4.1094,4.1105,4.1114,4.0988,4.0987,4.0986,0,0,4.0534,4.0563,4.0619,4.0649,4.0694,4.0712,4.0725,4.077,4.0785,4.0851,4.085,4.0893,4.0974,4.1005,4.1031,4.1113,4.1111,4.1128,4.1165,4.1206,4.1215,4.1223,4.1254,4.1264,4.1135,4.1135,4.1135,0,4.056,4.0633,4.0647,4.0701,4.073,4.0729,4.0785,4.0814,4.0872,4.0892,4.0877,4.0979,4.1008,4.1088,4.1108,4.1128,4.1144,4.1123,4.1213,4.1221,4.1229,4.1258,4.1269,4.1137,4.1136,4.1136,4.1136,0,4.0663,4.0714,4.0753,4.0809,4.0843,4.0897,4.0919,4.0952,4.0957,4.0976,4.1043,4.1078,4.1131,4.115,4.1155,4.1231,4.1221,4.1209,4.1182,4.1241,4.1269,4.128,4.1139,4.1139,4.1138,4.1138,0,0,4.0747,4.081,4.0824,4.085,4.0899,4.0939,4.0993,4.1045,4.1073,4.1112,4.1158,4.1226,4.1216,4.1246,4.1254,4.129,4.1354,4.1274,4.1275,4.1288,4.144,4.145,4.1463,4.1352,4.1354,4.1355,4.1437,0,4.0824,4.0921,4.0934,4.102,4.1067,4.1066,4.1113,4.1149,4.1168,4.1211,4.1231,4.128,4.1261,4.128,4.1315,4.1339,4.1385,4.1333,4.1395,4.1397,4.1386,4.1477,4.1488,4.1564,4.1448,4.145,4.1451,0,4.0927,4.097,4.106,4.1104,4.1124,4.1166,4.1215,4.1256,4.1296,4.1307,4.134,4.1344,4.14,4.1369,4.1447,4.1411,4.1437,4.1452,4.1456,4.1463,4.1429,4.1489,4.1588,4.16,4.1468,4.1467,4.1466,0,4.0981,4.1061,4.1125,4.1147,4.1199,4.1229,4.1252,4.129,4.132,4.1362,4.1382,4.143,4.1456,4.1493,4.151,4.1486,4.1587,4.1557,4.1598,4.1598,4.1621,4.162,4.1727,4.1635,4.1635,4.1635,4.1634,0,4.1067,4.1122,4.115,4.119,4.1252,4.1267,4.1328,4.135,4.1383,4.1427,4.1429,4.147,4.1489,4.1533,4.1546,4.1608,4.162,4.1631,4.1634,4.1632,4.1631,4.1651,4.1646,4.1638,4.1637,4.1636,4.1636,0,4.1138,4.1159,4.123,4.1273,4.1285,4.1329,4.1366,4.1404,4.1422,4.1478,4.1491,4.152,4.1572,4.1592,4.1655,4.1663,4.1736,4.1734,4.1723,4.1724,4.1765,4.1761,4.189,4.1908,4.1803,4.1804,4.1804,0,4.1193,4.1236,4.1283,4.1313,4.1337,4.1384,4.1415,4.1431,4.1463,4.1512,4.1544,4.1596,4.1638,4.1721,4.1747,4.1796,4.1796,4.1837,4.1803,4.18,4.1798,4.1796,4.1801,4.1845,4.1846,4.1846,4.1847,0,4.1287,4.1295,4.134,4.1389,4.1426,4.1465,4.1502,4.1526,4.1548,4.1584,4.1637,4.1669,4.1734,4.1785,4.1835,4.1858,4.1857,4.1857,4.187,4.1869,4.1861,4.1867,4.1742,4.1855,4.1854,4.1854,4.1853,4.1853,4.1353,4.1391,4.1431,4.1481,4.1511,4.1546,4.1584,4.1607,4.1652,4.1706,4.1712,4.1769,4.1807,4.1874,4.1899,4.1944,4.1933,4.195,4.1955,4.196,4.1963,4.1853,4.1953,4.1952,4.1952,4.1952,4.1952,0,4.1449,4.1474,4.152,4.1573,4.1612,4.1606,4.1648,4.1681,4.1731,4.1767,4.1809,4.187,4.192,4.1949,4.1999,4.2029,4.203,4.2042,4.2041,4.2047,4.197,4.1955,4.2041,4.2041,4.2041,4.2041,4.2041,4.2041,4.1504,4.1569,4.1581,4.166,4.1685,4.1742,4.1766,4.1798,4.1827,4.1895,4.1937,4.1955,4.1989,4.2041,4.2087,4.2094,4.2113,4.2127,4.2133,4.2061,4.2052,4.2043,4.2029,4.213,4.213,4.2207,4.2208,4.2208]}]]